| time (UTC) | temp C | wind direction | speed KPH | gust KPH | rain 1hr cm | rain 24hr cm | rain mn cm | humidity % | barometer mb |
| 20260506071103 | -17 | 132 | 14.5 | 24.1 | 0.00 | 0.00 | 0.00 | 92 | 1007.7 |
| 20260506070604 | -17 | 139 | 17.7 | 27.4 | 0.00 | 0.00 | 0.00 | 93 | 1007.7 |
| 20260506062103 | -17 | 194 | 0.0 | 4.8 | 0.00 | 0.00 | 0.00 | 95 | 1007.5 |
| 20260506061602 | -17 | 14 | 3.2 | 8.0 | 0.00 | 0.00 | 0.00 | 94 | 1007.2 |
| 20260506061102 | -17 | 336 | 1.6 | 3.2 | 0.00 | 0.00 | 0.00 | 94 | 1007.7 |
| 20260506060603 | -17 | 0 | 1.6 | 6.4 | 0.00 | 0.00 | 0.00 | 94 | 1007.5 |
| 20260506051102 | -17 | 322 | 6.4 | 9.7 | 0.00 | 0.00 | 0.00 | 94 | 1007.7 |
| 20260506050603 | -17 | 320 | 1.6 | 4.8 | 0.00 | 0.00 | 0.00 | 94 | 1007.8 |
| 20260506050104 | -17 | 352 | 12.9 | 12.9 | 0.00 | 0.00 | 0.00 | 94 | 1007.8 |
| 20260506045102 | -17 | 14 | 3.2 | 4.8 | 0.00 | 0.00 | 0.00 | 94 | 1008.1 |
| 20260506044603 | -17 | 266 | 6.4 | 9.7 | 0.00 | 0.00 | 0.00 | 94 | 1008.0 |
| 20260506044102 | -17 | 220 | 9.7 | 9.7 | 0.00 | 0.00 | 0.00 | 94 | 1008.1 |
| 20260506043603 | -17 | 354 | 14.5 | 27.4 | 0.00 | 0.00 | 0.00 | 94 | 1007.3 |
| 20260506043102 | -17 | 315 | 6.4 | 14.5 | 0.00 | 0.00 | 0.00 | 94 | 1007.8 |
| 20260506042603 | -17 | 281 | 3.2 | 6.4 | 0.00 | 0.00 | 0.00 | 94 | 1008.7 |
| 20260506042102 | -17 | 281 | 1.6 | 6.4 | 0.00 | 0.00 | 0.00 | 94 | 1008.2 |
| 20260506041603 | -17 | 311 | 1.6 | 8.0 | 0.00 | 0.00 | 0.00 | 94 | 1007.8 |
| 20260506041103 | -17 | 14 | 3.2 | 6.4 | 0.00 | 0.00 | 0.00 | 94 | 1008.1 |
| 20260506040603 | -17 | 327 | 4.8 | 8.0 | 0.00 | 0.00 | 0.00 | 94 | 1008.2 |
| 20260506035603 | -17 | 326 | 3.2 | 4.8 | 0.00 | 0.00 | 0.00 | 94 | 1008.5 |
| 20260506035103 | -17 | 70 | 4.8 | 6.4 | 0.00 | 0.00 | 0.00 | 94 | 1008.6 |
| 20260506034603 | -17 | 320 | 4.8 | 4.8 | 0.00 | 0.00 | 0.00 | 94 | 1008.8 |
| 20260506034102 | -17 | 255 | 0.0 | 3.2 | 0.00 | 0.00 | 0.00 | 94 | 1008.3 |
| 20260506033602 | -17 | 313 | 3.2 | 4.8 | 0.00 | 0.00 | 0.00 | 94 | 1008.5 |
| 20260506033102 | -17 | 331 | 4.8 | 8.0 | 0.00 | 0.00 | 0.00 | 94 | 1008.6 |
| 20260506032603 | -17 | 350 | 3.2 | 9.7 | 0.00 | 0.00 | 0.00 | 94 | 1008.5 |
| 20260506032102 | -17 | 0 | 0.0 | 3.2 | 0.00 | 0.00 | 0.00 | 94 | 1008.6 |
| 20260506031602 | -17 | 313 | 6.4 | 11.3 | 0.00 | 0.00 | 0.00 | 94 | 1008.5 |
| 20260506031103 | -17 | 285 | 6.4 | 9.7 | 0.00 | 0.00 | 0.00 | 94 | 1008.2 |
| 20260506030603 | -17 | 323 | 9.7 | 12.9 | 0.00 | 0.00 | 0.00 | 94 | 1008.3 |
| 20260506030103 | -17 | 312 | 4.8 | 16.1 | 0.00 | 0.00 | 0.00 | 94 | 1008.3 |
| 20260506025603 | -17 | 340 | 9.7 | 19.3 | 0.00 | 0.00 | 0.00 | 94 | 1008.7 |
| 20260506025102 | -17 | 251 | 3.2 | 20.9 | 0.00 | 0.00 | 0.00 | 94 | 1008.7 |
| 20260506024604 | -17 | 254 | 1.6 | 11.3 | 0.00 | 0.00 | 0.00 | 94 | 1008.2 |
| 20260506024102 | -17 | 337 | 9.7 | 14.5 | 0.00 | 0.00 | 0.00 | 94 | 1008.2 |
| 20260506023603 | -17 | 353 | 4.8 | 11.3 | 0.00 | 0.00 | 0.00 | 93 | 1007.7 |
| 20260506023102 | -17 | 17 | 4.8 | 6.4 | 0.00 | 0.00 | 0.00 | 93 | 1007.8 |
| 20260506022607 | -17 | 345 | 0.0 | 9.7 | 0.00 | 0.00 | 0.00 | 93 | 1007.8 |
| 20260506022102 | -17 | 335 | 8.0 | 9.7 | 0.00 | 0.00 | 0.00 | 93 | 1008.3 |
| 20260506021603 | -17 | 332 | 3.2 | 8.0 | 0.00 | 0.00 | 0.00 | 93 | 1008.2 |
| 20260506021103 | -17 | 23 | 1.6 | 8.0 | 0.00 | 0.00 | 0.00 | 93 | 1008.6 |
| 20260506020603 | -17 | 357 | 3.2 | 8.0 | 0.00 | 0.00 | 0.00 | 93 | 1008.7 |
| 20260506020104 | -17 | 0 | 3.2 | 4.8 | 0.00 | 0.00 | 0.00 | 93 | 1008.7 |
| 20260506015603 | -17 | 358 | 9.7 | 9.7 | 0.00 | 0.00 | 0.00 | 93 | 1008.6 |
| 20260506015103 | -17 | 297 | 0.0 | 1.6 | 0.00 | 0.00 | 0.00 | 93 | 1009.0 |
| 20260506014603 | -17 | 5 | 1.6 | 8.0 | 0.00 | 0.00 | 0.00 | 93 | 1008.8 |
| 20260506014103 | -17 | 345 | 0.0 | 9.7 | 0.00 | 0.00 | 0.00 | 93 | 1008.8 |
| 20260506013602 | -17 | 23 | 1.6 | 6.4 | 0.00 | 0.00 | 0.00 | 93 | 1008.7 |
| 20260506013104 | -17 | 356 | 1.6 | 4.8 | 0.00 | 0.00 | 0.00 | 93 | 1008.8 |
| 20260506012603 | -17 | 180 | 0.0 | 0.0 | 0.00 | 0.00 | 0.00 | 93 | 1009.2 |
| 20260506012103 | -17 | 300 | 1.6 | 4.8 | 0.00 | 0.00 | 0.00 | 93 | 1008.8 |
| 20260506011603 | -17 | 0 | 0.0 | 1.6 | 0.00 | 0.00 | 0.00 | 92 | 1009.2 |
| 20260506011103 | -17 | 0 | 4.8 | 9.7 | 0.00 | 0.00 | 0.00 | 92 | 1009.2 |
| 20260506010603 | -17 | 5 | 1.6 | 4.8 | 0.00 | 0.00 | 0.00 | 92 | 1009.5 |
| 20260506010103 | -17 | 350 | 6.4 | 12.9 | 0.00 | 0.00 | 0.00 | 92 | 1009.3 |
| 20260506005603 | -17 | 20 | 4.8 | 11.3 | 0.00 | 0.00 | 0.00 | 92 | 1009.3 |
| 20260506005104 | -17 | 23 | 0.0 | 4.8 | 0.00 | 0.00 | 0.00 | 92 | 1009.3 |
| 20260506004604 | -17 | 285 | 1.6 | 3.2 | 0.00 | 0.00 | 0.00 | 92 | 1009.3 |
| 20260506004102 | -17 | 323 | 6.4 | 8.0 | 0.00 | 0.00 | 0.00 | 91 | 1009.7 |
| 20260506003604 | -17 | 350 | 6.4 | 6.4 | 0.00 | 0.00 | 0.00 | 91 | 1009.7 |
| 20260506003103 | -17 | 354 | 0.0 | 4.8 | 0.00 | 0.00 | 0.00 | 91 | 1009.8 |
| 20260506002602 | -17 | 351 | 4.8 | 6.4 | 0.00 | 0.00 | 0.00 | 91 | 1009.8 |
| 20260506002102 | -17 | 15 | 0.0 | 4.8 | 0.00 | 0.00 | 0.00 | 90 | 1009.7 |
| 20260506001602 | -17 | 0 | 0.0 | 4.8 | 0.00 | 0.00 | 0.00 | 90 | 1009.7 |
| 20260506001103 | -17 | 261 | 0.0 | 1.6 | 0.00 | 0.00 | 0.00 | 89 | 1010.0 |
| 20260506000602 | -17 | 261 | 0.0 | 3.2 | 0.00 | 0.00 | 0.00 | 89 | 1009.6 |
| 20260505235602 | -17 | 33 | 8.0 | 8.0 | 0.00 | 0.00 | 0.00 | 89 | 1009.7 |
| 20260505235103 | -17 | 0 | 4.8 | 12.9 | 0.00 | 0.00 | 0.00 | 89 | 1009.8 |
| 20260505234603 | -17 | 18 | 4.8 | 9.7 | 0.00 | 0.00 | 0.00 | 88 | 1010.0 |
| 20260505234102 | -17 | 348 | 1.6 | 3.2 | 0.00 | 0.00 | 0.00 | 88 | 1010.0 |
| 20260505233603 | -17 | 332 | 3.2 | 4.8 | 0.00 | 0.00 | 0.00 | 88 | 1010.2 |
| 20260505233103 | -17 | 0 | 1.6 | 3.2 | 0.00 | 0.00 | 0.00 | 87 | 1010.2 |
| 20260505232603 | -17 | 0 | 0.0 | 6.4 | 0.00 | 0.00 | 0.00 | 87 | 1010.3 |
| 20260505232102 | -17 | 343 | 6.4 | 8.0 | 0.00 | 0.00 | 0.00 | 87 | 1010.5 |
| 20260505231602 | -17 | 352 | 9.7 | 12.9 | 0.00 | 0.00 | 0.00 | 86 | 1010.7 |
| 20260505231103 | -17 | 351 | 3.2 | 12.9 | 0.00 | 0.00 | 0.00 | 86 | 1010.7 |
| 20260505230602 | -17 | 351 | 4.8 | 11.3 | 0.00 | 0.00 | 0.00 | 86 | 1010.8 |
| 20260505225603 | -17 | 323 | 3.2 | 12.9 | 0.00 | 0.00 | 0.00 | 87 | 1010.8 |
| 20260505225103 | -17 | 352 | 6.4 | 11.3 | 0.00 | 0.00 | 0.00 | 87 | 1010.8 |
| 20260505224602 | -17 | 315 | 3.2 | 6.4 | 0.00 | 0.00 | 0.00 | 87 | 1011.1 |
| 20260505224103 | -17 | 0 | 3.2 | 8.0 | 0.00 | 0.00 | 0.00 | 87 | 1011.2 |
| 20260505223603 | -17 | 6 | 3.2 | 6.4 | 0.00 | 0.00 | 0.00 | 87 | 1011.2 |
| 20260505223103 | -17 | 262 | 0.0 | 1.6 | 0.00 | 0.00 | 0.00 | 87 | 1011.3 |
| 20260505222603 | -17 | 66 | 0.0 | 3.2 | 0.00 | 0.00 | 0.00 | 87 | 1011.2 |
| 20260505222103 | -17 | 339 | 3.2 | 4.8 | 0.00 | 0.00 | 0.00 | 87 | 1011.2 |
| 20260505221602 | -17 | 353 | 6.4 | 9.7 | 0.00 | 0.00 | 0.00 | 87 | 1011.6 |
| 20260505221102 | -17 | 23 | 8.0 | 9.7 | 0.00 | 0.00 | 0.00 | 87 | 1011.2 |
| 20260505220603 | -17 | 330 | 0.0 | 9.7 | 0.00 | 0.00 | 0.00 | 87 | 1011.2 |
| 20260505220103 | -17 | 59 | 1.6 | 9.7 | 0.00 | 0.00 | 0.00 | 87 | 1011.1 |
| 20260505215603 | -17 | 357 | 3.2 | 9.7 | 0.00 | 0.00 | 0.00 | 87 | 1011.2 |
| 20260505215102 | -17 | 14 | 1.6 | 6.4 | 0.00 | 0.00 | 0.00 | 87 | 1011.2 |
| 20260505214602 | -17 | 354 | 3.2 | 4.8 | 0.00 | 0.00 | 0.00 | 88 | 1011.3 |
| 20260505214102 | -17 | 7 | 1.6 | 9.7 | 0.00 | 0.00 | 0.00 | 87 | 1011.3 |
| 20260505213603 | -17 | 324 | 6.4 | 6.4 | 0.00 | 0.00 | 0.00 | 88 | 1011.6 |
| 20260505213103 | -17 | 21 | 3.2 | 6.4 | 0.00 | 0.00 | 0.00 | 88 | 1011.6 |
| 20260505212602 | -17 | 354 | 4.8 | 6.4 | 0.00 | 0.00 | 0.00 | 88 | 1011.5 |
| 20260505212102 | -17 | 24 | 4.8 | 8.0 | 0.00 | 0.00 | 0.00 | 89 | 1011.6 |
| 20260505211603 | -17 | 358 | 4.8 | 8.0 | 0.00 | 0.00 | 0.00 | 89 | 1011.7 |
| 20260505211103 | -17 | 11 | 0.0 | 9.7 | 0.00 | 0.00 | 0.00 | 89 | 1011.3 |
| 20260505210603 | -17 | 353 | 6.4 | 8.0 | 0.00 | 0.00 | 0.00 | 89 | 1011.3 |
| 20260505205602 | -17 | 23 | 1.6 | 9.7 | 0.00 | 0.00 | 0.00 | 90 | 1011.6 |
| 20260505205103 | -17 | 26 | 3.2 | 4.8 | 0.00 | 0.00 | 0.00 | 90 | 1011.7 |
| 20260505204603 | -17 | 354 | 3.2 | 6.4 | 0.00 | 0.00 | 0.00 | 89 | 1011.7 |
| 20260505204102 | -17 | 253 | 1.6 | 3.2 | 0.00 | 0.00 | 0.00 | 89 | 1011.8 |
| 20260505203603 | -17 | 306 | 1.6 | 4.8 | 0.00 | 0.00 | 0.00 | 89 | 1011.6 |
| 20260505203102 | -17 | 294 | 0.0 | 1.6 | 0.00 | 0.00 | 0.00 | 89 | 1012.0 |
| 20260505202602 | -17 | 270 | 0.0 | 3.2 | 0.00 | 0.00 | 0.00 | 88 | 1011.8 |
| 20260505201603 | -17 | 0 | 0.0 | 3.2 | 0.00 | 0.00 | 0.00 | 88 | 1012.1 |
| 20260505201102 | -17 | 344 | 1.6 | 1.6 | 0.00 | 0.00 | 0.00 | 87 | 1012.0 |
| 20260505200603 | -17 | 187 | 1.6 | 1.6 | 0.00 | 0.00 | 0.00 | 87 | 1011.8 |
| 20260505195603 | -17 | 0 | 0.0 | 3.2 | 0.00 | 0.00 | 0.00 | 86 | 1011.7 |
| 20260505195103 | -17 | 180 | 0.0 | 1.6 | 0.00 | 0.00 | 0.00 | 85 | 1011.7 |
| 20260505194603 | -17 | 249 | 0.0 | 1.6 | 0.00 | 0.00 | 0.00 | 85 | 1011.5 |
| 20260505194103 | -17 | 117 | 1.6 | 3.2 | 0.00 | 0.00 | 0.00 | 84 | 1011.6 |
| 20260505193602 | -17 | 180 | 1.6 | 1.6 | 0.00 | 0.00 | 0.00 | 84 | 1011.3 |
| 20260505193102 | -17 | 180 | 0.0 | 1.6 | 0.00 | 0.00 | 0.00 | 83 | 1011.7 |
| 20260505192602 | -17 | 111 | 0.0 | 3.2 | 0.00 | 0.00 | 0.00 | 83 | 1011.5 |
| 20260505192103 | -17 | 188 | 0.0 | 1.6 | 0.00 | 0.00 | 0.00 | 83 | 1011.5 |
| 20260505191603 | -17 | 145 | 1.6 | 3.2 | 0.00 | 0.00 | 0.00 | 82 | 1011.5 |
| 20260505191102 | -17 | 126 | 3.2 | 4.8 | 0.00 | 0.00 | 0.00 | 82 | 1011.3 |
| 20260505190602 | -17 | 180 | 6.4 | 9.7 | 0.00 | 0.00 | 0.00 | 81 | 1011.3 |
| 20260505190103 | -17 | 201 | 3.2 | 6.4 | 0.00 | 0.00 | 0.00 | 82 | 1011.2 |
| 20260505185602 | -17 | 145 | 1.6 | 4.8 | 0.00 | 0.00 | 0.00 | 82 | 1011.2 |
| 20260505185102 | -17 | 151 | 1.6 | 6.4 | 0.00 | 0.00 | 0.00 | 82 | 1011.2 |
| 20260505184603 | -17 | 218 | 0.0 | 4.8 | 0.00 | 0.00 | 0.00 | 81 | 1011.3 |
| 20260505184102 | -17 | 180 | 6.4 | 6.4 | 0.00 | 0.00 | 0.00 | 81 | 1011.2 |
| 20260505183603 | -17 | 177 | 8.0 | 11.3 | 0.00 | 0.00 | 0.00 | 81 | 1011.3 |
| 20260505183103 | -17 | 197 | 4.8 | 6.4 | 0.00 | 0.00 | 0.00 | 82 | 1011.2 |
| 20260505182603 | -17 | 187 | 6.4 | 11.3 | 0.00 | 0.00 | 0.00 | 82 | 1011.3 |
| 20260505182103 | -17 | 197 | 4.8 | 9.7 | 0.00 | 0.00 | 0.00 | 82 | 1011.7 |
| 20260505181603 | -17 | 252 | 6.4 | 9.7 | 0.00 | 0.00 | 0.00 | 82 | 1011.5 |
| 20260505181103 | -17 | 198 | 6.4 | 11.3 | 0.00 | 0.00 | 0.00 | 81 | 1011.2 |
| 20260505180602 | -17 | 183 | 6.4 | 9.7 | 0.00 | 0.00 | 0.00 | 82 | 1011.3 |
| 20260505175603 | -17 | 161 | 6.4 | 11.3 | 0.00 | 0.00 | 0.00 | 82 | 1011.2 |
| 20260505175103 | -17 | 182 | 9.7 | 12.9 | 0.00 | 0.00 | 0.00 | 82 | 1011.2 |
| 20260505174603 | -17 | 180 | 6.4 | 12.9 | 0.00 | 0.00 | 0.00 | 82 | 1011.1 |
| 20260505174103 | -17 | 179 | 8.0 | 14.5 | 0.00 | 0.00 | 0.00 | 82 | 1011.2 |
| 20260505173603 | -17 | 157 | 4.8 | 9.7 | 0.00 | 0.00 | 0.00 | 82 | 1011.2 |
| 20260505173102 | -17 | 194 | 9.7 | 12.9 | 0.00 | 0.00 | 0.00 | 81 | 1011.2 |
| 20260505172602 | -17 | 180 | 4.8 | 11.3 | 0.00 | 0.00 | 0.00 | 81 | 1011.2 |
| 20260505172102 | -17 | 238 | 6.4 | 12.9 | 0.00 | 0.00 | 0.00 | 81 | 1011.2 |
| 20260505171602 | -17 | 243 | 4.8 | 11.3 | 0.00 | 0.00 | 0.00 | 80 | 1010.8 |
| 20260505171103 | -17 | 215 | 3.2 | 11.3 | 0.00 | 0.00 | 0.00 | 79 | 1011.2 |
| 20260505170603 | -17 | 194 | 1.6 | 8.0 | 0.00 | 0.00 | 0.00 | 79 | 1011.2 |
| 20260505170103 | -17 | 194 | 3.2 | 12.9 | 0.00 | 0.00 | 0.00 | 79 | 1011.2 |
| 20260505165603 | -17 | 180 | 6.4 | 9.7 | 0.00 | 0.00 | 0.00 | 78 | 1011.1 |
| 20260505165103 | -17 | 127 | 6.4 | 11.3 | 0.00 | 0.00 | 0.00 | 78 | 1011.1 |
| 20260505164603 | -17 | 161 | 6.4 | 12.9 | 0.00 | 0.00 | 0.00 | 78 | 1011.1 |
| 20260505164102 | -17 | 169 | 9.7 | 12.9 | 0.00 | 0.00 | 0.00 | 78 | 1011.1 |
| 20260505163603 | -17 | 176 | 8.0 | 9.7 | 0.00 | 0.00 | 0.00 | 77 | 1010.8 |
| 20260505163103 | -17 | 177 | 8.0 | 9.7 | 0.00 | 0.00 | 0.00 | 77 | 1011.0 |
| 20260505162603 | -17 | 180 | 9.7 | 9.7 | 0.00 | 0.00 | 0.00 | 77 | 1011.2 |
| 20260505162102 | -17 | 170 | 8.0 | 9.7 | 0.00 | 0.00 | 0.00 | 77 | 1011.2 |
| 20260505161603 | -17 | 176 | 8.0 | 12.9 | 0.00 | 0.00 | 0.00 | 76 | 1011.2 |
| 20260505161103 | -17 | 161 | 3.2 | 8.0 | 0.00 | 0.00 | 0.00 | 76 | 1011.2 |
| 20260505160603 | -17 | 143 | 6.4 | 9.7 | 0.00 | 0.00 | 0.00 | 75 | 1011.3 |
| 20260505153102 | -17 | 150 | 6.4 | 11.3 | 0.00 | 0.00 | 0.00 | 77 | 1011.6 |
| 20260505152603 | -17 | 121 | 8.0 | 14.5 | 0.00 | 0.00 | 0.00 | 76 | 1011.6 |
| 20260505152103 | -17 | 180 | 9.7 | 17.7 | 0.00 | 0.00 | 0.00 | 75 | 1011.6 |
| 20260505151602 | -17 | 180 | 3.2 | 12.9 | 0.00 | 0.00 | 0.00 | 76 | 1011.7 |
| 20260505151103 | -17 | 165 | 12.9 | 14.5 | 0.00 | 0.00 | 0.00 | 76 | 1011.6 |
| 20260505150603 | -17 | 180 | 6.4 | 12.9 | 0.00 | 0.00 | 0.00 | 77 | 1011.5 |
| 20260505140603 | -17 | 185 | 6.4 | 16.1 | 0.00 | 0.00 | 0.00 | 72 | 1011.3 |
| 20260505124602 | -17 | 197 | 6.4 | 20.9 | 0.00 | 0.00 | 0.00 | 72 | 1011.7 |
| 20260505124103 | -17 | 134 | 12.9 | 20.9 | 0.00 | 0.00 | 0.00 | 73 | 1011.6 |
| 20260505123602 | -17 | 196 | 11.3 | 14.5 | 0.00 | 0.00 | 0.00 | 72 | 1011.7 |
| 20260505123102 | -17 | 176 | 16.1 | 17.7 | 0.00 | 0.00 | 0.00 | 72 | 1011.7 |
| 20260505122602 | -17 | 175 | 6.4 | 9.7 | 0.00 | 0.00 | 0.00 | 74 | 1011.6 |
| 20260505122102 | -17 | 189 | 11.3 | 16.1 | 0.00 | 0.00 | 0.00 | 75 | 1011.7 |
| 20260505121602 | -17 | 171 | 12.9 | 19.3 | 0.00 | 0.00 | 0.00 | 73 | 1011.7 |
| 20260505121102 | -17 | 94 | 3.2 | 9.7 | 0.00 | 0.00 | 0.00 | 73 | 1011.5 |
| 20260505120603 | -17 | 135 | 6.4 | 20.9 | 0.00 | 0.00 | 0.00 | 74 | 1011.6 |
| 20260505120103 | -17 | 126 | 6.4 | 12.9 | 0.00 | 0.00 | 0.00 | 74 | 1011.7 |
| 20260505115102 | -17 | 172 | 12.9 | 20.9 | 0.00 | 0.00 | 0.00 | 75 | 1011.3 |
| 20260505114602 | -17 | 198 | 9.7 | 16.1 | 0.00 | 0.00 | 0.00 | 77 | 1011.6 |
| 20260505114102 | -17 | 198 | 12.9 | 19.3 | 0.00 | 0.00 | 0.00 | 77 | 1011.7 |
| 20260505113602 | -17 | 182 | 20.9 | 20.9 | 0.00 | 0.00 | 0.00 | 77 | 1011.6 |
| 20260505113103 | -17 | 202 | 4.8 | 24.1 | 0.00 | 0.00 | 0.00 | 77 | 1011.5 |
| 20260505112603 | -17 | 180 | 12.9 | 33.8 | 0.00 | 0.00 | 0.00 | 77 | 1011.3 |
| 20260505112103 | -17 | 181 | 17.7 | 25.7 | 0.00 | 0.00 | 0.00 | 76 | 1011.5 |
| 20260505111602 | -17 | 125 | 11.3 | 17.7 | 0.00 | 0.00 | 0.00 | 77 | 1011.6 |
| 20260505111103 | -17 | 153 | 6.4 | 20.9 | 0.00 | 0.00 | 0.00 | 77 | 1011.5 |
| 20260505110603 | -17 | 151 | 12.9 | 14.5 | 0.00 | 0.00 | 0.00 | 78 | 1011.2 |
| 20260505102102 | -17 | 300 | 0.0 | 1.6 | 0.00 | 0.00 | 0.00 | 88 | 1011.5 |
| 20260505101602 | -17 | 285 | 1.6 | 3.2 | 0.00 | 0.00 | 0.00 | 90 | 1011.2 |
| 20260505101103 | -17 | 0 | 0.0 | 4.8 | 0.00 | 0.00 | 0.00 | 92 | 1011.3 |
| 20260505100602 | -17 | 270 | 0.0 | 3.2 | 0.00 | 0.00 | 0.00 | 92 | 1011.2 |
| 20260505095604 | -17 | 90 | 0.0 | 1.6 | 0.00 | 0.00 | 0.00 | 93 | 1011.2 |
| 20260505095103 | -17 | 107 | 1.6 | 3.2 | 0.00 | 0.00 | 0.00 | 93 | 1011.2 |
| 20260505094602 | -17 | 0 | 0.0 | 4.8 | 0.00 | 0.00 | 0.00 | 93 | 1011.2 |
| 20260505094102 | -17 | 78 | 0.0 | 6.4 | 0.00 | 0.00 | 0.00 | 94 | 1011.5 |
| 20260505093602 | -17 | 355 | 1.6 | 4.8 | 0.00 | 0.00 | 0.00 | 93 | 1011.3 |
| 20260505093104 | -17 | 351 | 1.6 | 4.8 | 0.00 | 0.00 | 0.00 | 94 | 1011.2 |
| 20260505092603 | -17 | 328 | 0.0 | 4.8 | 0.00 | 0.00 | 0.00 | 94 | 1011.2 |
| 20260505092103 | -17 | 357 | 3.2 | 4.8 | 0.00 | 0.00 | 0.00 | 94 | 1011.3 |
| 20260505091602 | -17 | 338 | 3.2 | 4.8 | 0.00 | 0.00 | 0.00 | 94 | 1011.5 |
| 20260505091103 | -17 | 334 | 1.6 | 4.8 | 0.00 | 0.00 | 0.00 | 94 | 1011.2 |
| 20260505090603 | -17 | 270 | 1.6 | 3.2 | 0.00 | 0.00 | 0.00 | 94 | 1011.6 |
| 20260505085603 | -17 | 0 | 1.6 | 4.8 | 0.00 | 0.00 | 0.00 | 95 | 1011.5 |
| 20260505085104 | -17 | 356 | 3.2 | 4.8 | 0.00 | 0.00 | 0.00 | 95 | 1011.5 |
| 20260505084603 | -17 | 40 | 1.6 | 4.8 | 0.00 | 0.00 | 0.00 | 95 | 1011.3 |
| 20260505084102 | -17 | 0 | 1.6 | 8.0 | 0.00 | 0.00 | 0.00 | 95 | 1011.5 |
| 20260505083604 | -17 | 342 | 1.6 | 6.4 | 0.00 | 0.00 | 0.00 | 94 | 1011.5 |
| 20260505083103 | -17 | 356 | 1.6 | 3.2 | 0.00 | 0.00 | 0.00 | 95 | 1011.3 |
| 20260505082603 | -17 | 4 | 1.6 | 3.2 | 0.00 | 0.00 | 0.00 | 95 | 1011.2 |
| 20260505082103 | -17 | 7 | 0.0 | 3.2 | 0.00 | 0.00 | 0.00 | 95 | 1011.2 |
| 20260505081602 | -17 | 337 | 1.6 | 4.8 | 0.00 | 0.00 | 0.00 | 95 | 1011.2 |
| 20260505081103 | -17 | 249 | 0.0 | 4.8 | 0.00 | 0.00 | 0.00 | 95 | 1011.2 |
| 20260505080602 | -17 | 270 | 0.0 | 1.6 | 0.00 | 0.00 | 0.00 | 95 | 1011.2 |
| 20260505075604 | -17 | 0 | 0.0 | 3.2 | 0.00 | 0.00 | 0.00 | 95 | 1011.5 |
| 20260505075103 | -17 | 341 | 0.0 | 4.8 | 0.00 | 0.00 | 0.00 | 95 | 1011.2 |
| 20260505074602 | -17 | 228 | 0.0 | 8.0 | 0.00 | 0.00 | 0.00 | 95 | 1011.3 |
| 20260505074102 | -17 | 255 | 0.0 | 6.4 | 0.00 | 0.00 | 0.00 | 95 | 1011.6 |
| 20260505073603 | -17 | 286 | 0.0 | 3.2 | 0.00 | 0.00 | 0.00 | 95 | 1011.6 |
| 20260505073102 | -17 | 328 | 0.0 | 3.2 | 0.00 | 0.00 | 0.00 | 95 | 1011.6 |
| 20260505072602 | -17 | 246 | 0.0 | 3.2 | 0.00 | 0.00 | 0.00 | 95 | 1011.6 |
| 20260505072104 | -17 | 276 | 1.6 | 3.2 | 0.00 | 0.00 | 0.00 | 95 | 1011.5 |
| 20260505071603 | -17 | 196 | 3.2 | 4.8 | 0.00 | 0.00 | 0.00 | 95 | 1011.3 |